THOR ABLESTAR DEB, 1521

Orbit data source: Space-Track

THOR ABLESTAR DEB, 1521 is space debris in LEO originally from a launch on Fri, 13 Aug 1965 UTC launched from the Air Force Western Test Range (AFWTR). Debris objects in space refer to the collection of defunct objects orbiting the Earth. Examples of debris include non-operational satellites, rocket bodies, and fragments generated from explosions, collisions, or faulty payload assembly.

Loading next visibility...
Identifier
1521, 1965-065K
Orbit
LEO
Country
Flag of USUS
Related business
Manufacturer
NRL
Mission
Spacecraft
Bus & Motor
Unknown
Mass
Unknown
Launch date (UTC)
1965-08-13 (60 years ago)
Launch vehicle
Unknown
Launch site
Air Force Western Test Range (AFWTR)
Object type
Payload
Rocket body
Debris
Shape & HBR
Unknown shape, 0.2 m
Radar Cross Section
Small (<0.1 m²)

Expand to show TLE details & history
Last TLE update: 13 hours ago

TLE from 13 hours ago
0 THOR ABLESTAR DEB
1  1521U 65065K   26037.97434813  .00000033  00000-0  48918-4 0  9998
2  1521  90.0107 210.0345 0067614 268.4747 217.6915 13.33277958942054
Epoch: 2026-02-06T23:23Z
TLE epoch observation values (Epoch: 2026-02-06T23:23:03.678Z)
Latitude
54.39698°
Longitude
-97.82048°
Altitude
1,183.788 km
Speed
7.247 km/s
True Right ascension
02h 00m 11s
True Declination
54° 14' 36"
Sunlit
Object was in daylight at epoch
Visualization orbit readout
Latitude
Unknown
Longitude
Unknown
Altitude
Unknown
Speed
Unknown
Apparent Right ascension
Unknown
Apparent Declination
Unknown
Sunlit
N/A
Visualization observer readout
Local Sidereal Time
14:24:08
Azimuth
Unknown
Elevation
Unknown
Doppler factor
Unknown
Orbital elements
Apogee altitude
1,182.274 km
Perigee altitude
1,080.723 km
Semi-major axis
7,509.636 km
Eccentricity
0.00676
Inclination
90.0107°
RAAN
210.0345°
Arg. of periapsis
268.4747°
True anomaly
217.22093°
Mean anomaly
217.6915°
Eccentric anomaly
217.4559°
Mean motion
3.33515 °/min
Orbital period
107.94 mins
BSTAR
0.000048918
Loading maneuver chart data...
Computing Atmospheric mass density...
Loading historical data...
Loading historical data...
Loading historical data...
Loading historical data...
Loading historical data...
Loading historical data...
Loading historical data...

Documentation

Showing up to 5 results
|